Location: Sobotiste
(48.7170°N, 17.4000°E)
Time: 01:06:09
(UTC+02:00)

METEOR M2 - Pass Details

Date: 19 March 2026
Orbit: 817 x 824 km, 98.5° (Epoch: 13 April)

Event Time Altitude Azimuth Distance (km) Brightness Sun altitude
Rises 04:15:52 0° 15° (NNE) 3,373 ? -17.0°
Reaches altitude 10° 04:18:14 10° 16° (NNE) 2,436 ? -16.7°
Maximum altitude 04:23:38 80° 104° (ESE) 843 ? -15.8°
Drops below altitude 10° 04:29:00 10° 192° (SSW) 2,416 ? -15.0°
Sets 04:31:21 0° 193° (SSW) 3,344 ? -14.6°
